It's Sunday,
June 16th, 2019
User not logged in
[Run Race Header Image][Run Race logo]
  
Race webcasting is attempted by race directors and their support staff. Please remember that conditions under which they're working may make it difficult to post timely webcast updates... your interest and patience is appreciated!
Race Information
Race Name:Kettle 100 Endurance Runs - 2017
Location:LaGrange
State:Wisconsin, United States
 button: button: Webcast Autoplay
Event Information
Name of Event:Kettle 100m solo
Distance:100.00
Measurement:Miles
Date:Saturday June 3rd, 2017
button: Assign Numbers 

Event Information
Name of Event:Kettle 100k solo
Distance:100.00
Measurement:Kilometers
Date:Saturday June 3rd, 2017
button: Assign Numbers  
Checkpoint:Hwy 67 Outbound
Distance:24.8 Miles
Gun Start Time:Saturday June 3rd, 2017 6:02:18.49 am
Calculate Chip Start Time:< not set >
Y or N... Calculate splits based upon participant chip start time?
Allow Early Chip Start Time:< not set >
Y or N... Allow participants a chip start time prior to gun start?
Pos Race
Number
NameAgeSexTimePace 
1425Jordan LaFreniere34M3:01:53.97:20.1Sat Jun 3rd, 2017 9:04:12 am
2487Cory Logsdon29M3:03:13.57:23.3Sat Jun 3rd, 2017 9:05:32 am
3511Mason Grundy23M3:04:25.87:26.2Sat Jun 3rd, 2017 9:06:44 am
4497Jacob Pellmann28M3:20:31.68:05.1Sat Jun 3rd, 2017 9:22:50 am
5416Walt Jedzejec36M3:25:50.78:18.0Sat Jun 3rd, 2017 9:28:09 am
6470Blake Trotter39M3:27:43.38:22.6Sat Jun 3rd, 2017 9:30:01 am
7445Chris Farnum20M3:28:11.68:23.7Sat Jun 3rd, 2017 9:30:30 am
8483Dan Riefenberg35M3:30:07.08:28.3Sat Jun 3rd, 2017 9:32:25 am
9459Ross Salinas36M3:34:19.98:38.5Sat Jun 3rd, 2017 9:36:38 am
10446PATRICK CAMPBELL57M3:38:02.38:47.5Sat Jun 3rd, 2017 9:40:20 am
11515David Curtin42M3:38:59.58:49.8Sat Jun 3rd, 2017 9:41:17 am
12486Mika Thewes26F3:40:14.98:52.9Sat Jun 3rd, 2017 9:42:33 am
13510Henry Southgate36M3:40:31.68:53.5Sat Jun 3rd, 2017 9:42:50 am
14492Vikash Malik34M3:40:32.18:53.6Sat Jun 3rd, 2017 9:42:50 am
15525Daniel Goeckermann36M3:45:51.39:06.4Sat Jun 3rd, 2017 9:48:09 am
16494Frank Alessandrini29M3:47:59.79:11.6Sat Jun 3rd, 2017 9:50:18 am
17520Ray Liberatore29M3:49:43.69:15.8Sat Jun 3rd, 2017 9:52:02 am
18460Jeffrey Bruzek42M3:57:03.09:33.5Sat Jun 3rd, 2017 9:59:21 am
19480Avi Janssen46M3:57:14.89:34.0Sat Jun 3rd, 2017 9:59:33 am
20465Phil Strong37M3:57:49.09:35.4Sat Jun 3rd, 2017 10:00:07 am
21499Terry Jarrell56M3:58:38.59:37.4Sat Jun 3rd, 2017 10:00:57 am
22442Colleen MacDonald34F4:01:12.49:43.6Sat Jun 3rd, 2017 10:03:30 am
23503Yanzi Liu38F4:03:34.59:49.3Sat Jun 3rd, 2017 10:05:53 am
24518Matthew Condron50M4:04:20.09:51.1Sat Jun 3rd, 2017 10:06:38 am
25468Mark Martinsen53M4:05:58.69:55.1Sat Jun 3rd, 2017 10:08:17 am
26490Brad Whitson53M4:07:04.69:57.8Sat Jun 3rd, 2017 10:09:23 am
27491Andrew Owings41M4:08:07.610:00.3Sat Jun 3rd, 2017 10:10:26 am
28522Michael Younglove57M4:12:01.010:09.7Sat Jun 3rd, 2017 10:14:19 am
29495Michael Krattley53M4:16:44.210:21.1Sat Jun 3rd, 2017 10:19:02 am
30455Heidi Hasapopoulos37F4:16:47.510:21.3Sat Jun 3rd, 2017 10:19:05 am
31496Magdalena Casper-Shipp31F4:19:18.910:27.4Sat Jun 3rd, 2017 10:21:37 am
32493Jason Krezinski44M4:21:17.910:32.2Sat Jun 3rd, 2017 10:23:36 am
33437Marta Borkowska39F4:21:25.210:32.5Sat Jun 3rd, 2017 10:23:43 am
34420Ray Johnson38M4:21:26.510:32.5Sat Jun 3rd, 2017 10:23:45 am
35430ronghui wang49M4:22:02.910:34.0Sat Jun 3rd, 2017 10:24:21 am
36501William Hutchinson47M4:23:19.310:37.1Sat Jun 3rd, 2017 10:25:37 am
37422Sean Wyatt45M4:24:38.410:40.3Sat Jun 3rd, 2017 10:26:56 am
38457Dan McArdle33M4:26:38.310:45.1Sat Jun 3rd, 2017 10:28:56 am
39464Stephen Strawn34M4:27:57.810:48.3Sat Jun 3rd, 2017 10:30:16 am
40453Jaime Hardgrove37F4:29:39.210:52.4Sat Jun 3rd, 2017 10:31:57 am
41526Brandon Becker40M4:29:40.210:52.4Sat Jun 3rd, 2017 10:31:58 am
42462James Feeny39M4:30:07.510:53.5Sat Jun 3rd, 2017 10:32:26 am
43419Adam Stoddard44M4:31:32.310:56.9Sat Jun 3rd, 2017 10:33:50 am
44431Ezequiel Fernandez42M4:32:04.610:58.2Sat Jun 3rd, 2017 10:34:23 am
45475Elizabeth Coll54F4:32:23.210:59.0Sat Jun 3rd, 2017 10:34:41 am
46456Rob Schmitter51M4:33:23.911:01.4Sat Jun 3rd, 2017 10:35:42 am
47505Christopher Tebeau46M4:36:20.411:08.6Sat Jun 3rd, 2017 10:38:38 am
48417Dan Hibbard46M4:38:23.711:13.5Sat Jun 3rd, 2017 10:40:42 am
49458Kathy Muehlbauer43F4:40:48.111:19.4Sat Jun 3rd, 2017 10:43:06 am
50523Paul Shimondle65M4:40:53.611:19.6Sat Jun 3rd, 2017 10:43:12 am
51438Jason Jeffers44M4:40:58.611:19.8Sat Jun 3rd, 2017 10:43:17 am
52488Lucy Burke42F4:41:24.411:20.8Sat Jun 3rd, 2017 10:43:42 am
53504Josh Stebbins30M4:42:27.611:23.4Sat Jun 3rd, 2017 10:44:46 am
54432Rick Sperko46M4:42:36.811:23.7Sat Jun 3rd, 2017 10:44:55 am
55498DAVID BITNER40M4:43:20.511:25.5Sat Jun 3rd, 2017 10:45:39 am
56436Michael Wingertsahn28M4:45:56.211:31.8Sat Jun 3rd, 2017 10:48:14 am
57452William Jackson54M4:48:42.711:38.5Sat Jun 3rd, 2017 10:51:01 am
58467Rob Goeckermann38M4:48:46.811:38.7Sat Jun 3rd, 2017 10:51:05 am
59449Ric Angara46M4:51:33.411:45.4Sat Jun 3rd, 2017 10:53:51 am
60434Jing Geng51M4:51:38.311:45.6Sat Jun 3rd, 2017 10:53:56 am
61474Juli Aistars58F4:56:20.511:57.0Sat Jun 3rd, 2017 10:58:39 am
62400Nicole Pence31F4:58:17.712:01.7Sat Jun 3rd, 2017 11:00:36 am
63402jon hendren55M4:58:22.212:01.9Sat Jun 3rd, 2017 11:00:40 am
64401Thomas Owenby38M5:00:55.612:08.0Sat Jun 3rd, 2017 11:03:14 am
65471Sarah Hauge38F5:03:09.512:13.4Sat Jun 3rd, 2017 11:05:28 am
66423Thomas Hope47M5:03:50.112:15.1Sat Jun 3rd, 2017 11:06:08 am
67405Lauro Perez42M5:05:28.812:19.1Sat Jun 3rd, 2017 11:07:47 am
68519Brenda Bland57F5:06:27.312:21.4Sat Jun 3rd, 2017 11:08:45 am
69435Jen Birkner46F5:10:29.612:31.2Sat Jun 3rd, 2017 11:12:48 am
70440Andy Nordeen59M5:10:36.112:31.5Sat Jun 3rd, 2017 11:12:54 am
71500Irene Kok46F5:12:33.212:36.2Sat Jun 3rd, 2017 11:14:51 am
72426Bob Pilmer59M5:14:30.612:40.9Sat Jun 3rd, 2017 11:16:49 am
73461Liz Baumgardt36F5:16:39.112:46.1Sat Jun 3rd, 2017 11:18:57 am
74477Linda Britz47F5:17:34.812:48.3Sat Jun 3rd, 2017 11:19:53 am
75485Gail Zielinski49F5:18:21.812:50.2Sat Jun 3rd, 2017 11:20:40 am
76516Tony Cesario53M5:19:38.412:53.3Sat Jun 3rd, 2017 11:21:56 am
77403Tom Burrell46M5:20:17.012:54.9Sat Jun 3rd, 2017 11:22:35 am
78517Andrea Hutchins40F5:20:17.012:54.9Sat Jun 3rd, 2017 11:22:35 am
79429Tony Baker49M5:20:18.412:54.9Sat Jun 3rd, 2017 11:22:36 am
80524Robert Fredenhagen26M5:23:40.513:03.1Sat Jun 3rd, 2017 11:25:59 am
81507Tim Hanson46M5:25:42.713:08.0Sat Jun 3rd, 2017 11:28:01 am
82506jason kumlien47M5:25:45.713:08.1Sat Jun 3rd, 2017 11:28:04 am
83413Katie Zopf38F5:27:05.113:11.3Sat Jun 3rd, 2017 11:29:23 am
84447Andrea Odrzywolski44F5:27:05.713:11.4Sat Jun 3rd, 2017 11:29:24 am
85512Steven Nguyen27M5:29:41.713:17.7Sat Jun 3rd, 2017 11:32:00 am
86454Richard Albanese44M5:30:39.813:20.0Sat Jun 3rd, 2017 11:32:58 am
87441Mark Kaczmarek60M5:31:24.513:21.8Sat Jun 3rd, 2017 11:33:43 am
88481Kirsten Pieper46F5:35:43.013:32.2Sat Jun 3rd, 2017 11:38:01 am
89489Jim Street55M5:35:44.113:32.3Sat Jun 3rd, 2017 11:38:02 am
90476Wayne Nelson51M5:36:32.413:34.2Sat Jun 3rd, 2017 11:38:50 am
91514Dennis Strenk45M5:38:56.813:40.0Sat Jun 3rd, 2017 11:41:15 am
92404Ken Hannah43M5:39:31.513:41.4Sat Jun 3rd, 2017 11:41:49 am
93439Amanda Laughead44F5:47:53.914:01.7Sat Jun 3rd, 2017 11:50:12 am
94479Alex Fox30M5:48:34.314:03.3Sat Jun 3rd, 2017 11:50:52 am
95410Jake Winder29M5:51:27.914:10.3Sat Jun 3rd, 2017 11:53:46 am
96532Nelson Zacarias46M5:52:06.814:11.9Sat Jun 3rd, 2017 11:54:25 am
97466Tiffany Campbell44F6:03:42.314:39.9Sat Jun 3rd, 2017 12:06:00 pm
98450Betsy Rogers53F6:06:01.214:45.5Sat Jun 3rd, 2017 12:08:19 pm
99412Brian Smock50M6:13:37.515:03.9Sat Jun 3rd, 2017 12:15:55 pm
100411Susan Smock39F6:13:38.215:04.0Sat Jun 3rd, 2017 12:15:56 pm
101473Stephen Bedrin40M6:15:53.215:09.4Sat Jun 3rd, 2017 12:18:11 pm

Event Information
Name of Event:Kettle 100 relay
Distance:100.00
Measurement:Miles
Date:Saturday June 3rd, 2017
button: Assign Numbers 

Event Information
Name of Event:Kettle 50 km solo
Distance:50.00
Measurement:Kilometers
Date:Saturday June 3rd, 2017
button: Assign Numbers 

Event Information
Name of Event:Kettle 38 night fun run
Distance:38.00
Measurement:Miles
Date:Saturday June 3rd, 2017
button: Assign Numbers 
2004-2019 : All rights reserved
Terms and Conditions